Regional Weather Roundup
Issued by NWS

Home | Current Version | Previous Version | Text Only | Print | Product List | Glossary On
Versions: 1 2 3 4 5 6 7 8 9 10 11 12 13 14 15 16 17 18 19 20 21 22 23 24 25 26 27 28 29 30 31 32 33 34 35 36 37 38 39 40 41 42 43 44 45 46 47 48 49 50
000
ASUS43 KLMK 241002
RWRKY
KENTUCKY REGIONAL WEATHER ROUNDUP
NATIONAL WEATHER SERVICE LOUISVILLE KY
600 AM EDT FRI OCT 24 2014

NOTE "FAIR" INDICATES FEW OR NO CLOUDS BELOW 12,000 FEET
WITH NO SIGNIFICANT WEATHER AND/OR OBSTRUCTIONS TO VISIBILITY.

KYZ001>023-026-027-061>063-070>075-241100-
WESTERN AND SOUTH CENTRAL KENTUCKY

CITY           SKY/WX    TMP DP  RH WIND       PRES   REMARKS
PADUCAH        CLEAR     40  38  93 CALM      30.12R
HENDERSON      CLOUDY   N/A N/A N/A CALM      30.12S
OWENSBORO      MOCLDY    41  40  96 CALM      30.13R
HOPKINSVILLE   CLEAR     46  46 100 W1        30.12S
BOWLING GREEN  CLEAR     44  41  89 CALM      30.13R
GLASGOW        NOT AVBL
$$

KYZ024-025-028>034-038-045-046-053-241100-
NORTH CENTRAL KENTUCKY

CITY           SKY/WX    TMP DP  RH WIND       PRES   REMARKS
LOUISVILLE/SDF PTCLDY    45  42  89 SE9       30.13R
LOUISVILLE/LOU CLEAR     42  40  92 CALM      30.13S
FORT KNOX      CLEAR     39  38  96 NW2       30.11S
$$

KYZ035>037-039>044-047>052-055>060-089>105-241100-
NORTHEAST KENTUCKY

CITY           SKY/WX    TMP DP  RH WIND       PRES   REMARKS
LEXINGTON      PTCLDY    40  37  89 CALM      30.13R
COVINGTON      CLOUDY    43  40  89 S3        30.11F
FRANKFORT      MOCLDY    41  39  93 CALM      30.12R
$$

KYZ054-064>069-076>088-106>120-241100-
SOUTHEAST KENTUCKY

CITY           SKY/WX    TMP DP  RH WIND       PRES   REMARKS
JACKSON        MOCLDY    46  40  79 CALM      30.12S
LONDON         MOCLDY    43  39  86 CALM      30.12R
SOMERSET       PTCLDY    41  41 100 CALM      30.13S
MIDDLESBORO    CLOUDY    41  41  99 CALM      30.14R
MONTICELLO     CLOUDY    44  43  97 CALM      30.14R FOG
$$




USA.gov is the U.S. government's official web portal to all federal, state and local government web resources and services.